Theta_e
324 324 324 323 322 321 320 320 320 319 319 318 317 317 316 316 316 317 316 316 316 316 315 316 317 317 318 319 320 321 321 321 321 321 322 323 322 322 323 324 324 324
325 324 324 324 323 321 320 320 320 319 319 319 318 318 317 317 317 317 317 317 317 316 316 316 316 317 318 319 320 321 321 321 321 321 322 322 322 322 323 323 323 323
325 324 324 324 323 322 321 321 320 320 320 319 319 318 317 317 318 317 317 317 317 317 317 317 317 317 318 319 320 321 321 321 321 322 323 322 322 322 322 322 323 323
324 324 324 324 323 323 322 322 321 320 320 319 318 318 318 317 318 318 318 318 318 318 317 318 318 318 319 320 321 322 322 322 323 323 323 323 322 321 321 322 323 323
324 324 324 324 323 323 323 323 322 320 319 319 318 318 319 318 318 318 319 319 319 319 319 319 319 319 320 321 322 323 323 323 324 324 324 323 322 321 321 322 322 323
323 324 324 324 324 324 323 323 322 320 319 318 318 319 319 319 319 319 319 320 320 320 320 320 320 320 321 322 323 323 323 324 324 324 324 323 322 322 321 321 322 322
322 323 323 323 323 323 323 322 322 321 319 319 319 319 319 319 319 319 320 321 321 321 321 321 322 322 322 323 323 323 324 324 324 324 324 324 323 322 322 322 323 323
320 321 322 322 323 323 323 322 322 321 320 319 319 319 319 320 320 320 321 322 322 322 322 322 322 323 323 324 324 324 324 324 324 325 325 324 324 323 322 322 323 323
318 319 321 322 323 323 323 322 322 321 321 320 319 319 320 320 321 322 322 323 323 323 323 323 323 324 324 324 324 325 325 325 325 325 325 325 324 324 323 322 321 321
316 317 319 321 322 322 322 322 321 321 321 320 320 320 321 322 322 323 323 324 324 325 324 324 324 324 325 325 325 326 326 325 325 325 325 324 324 323 323 322 321 321
314 315 316 318 319 320 320 320 320 320 320 320 320 321 321 323 324 324 324 325 325 325 325 325 325 325 325 325 325 325 325 325 325 325 325 324 324 325 324 323 324 324
313 313 314 314 315 317 317 318 318 319 319 320 321 321 322 323 324 324 325 325 325 325 325 325 325 325 325 325 325 325 326 325 325 324 324 324 324 323 322 322 322 323
312 312 312 312 313 314 315 316 317 318 319 320 321 322 323 323 324 324 325 325 325 325 325 325 325 325 325 325 326 326 325 324 324 323 323 323 322 321 320 321 321 320
312 312 311 312 312 312 313 315 315 316 318 319 320 321 322 322 323 323 324 324 324 325 325 325 325 325 325 325 325 325 324 323 323 323 323 323 323 322 323 323 323 322
312 311 311 311 311 311 312 313 314 314 316 317 318 319 320 321 321 322 322 323 323 324 324 324 324 324 324 324 322 321 321 322 323 322 322 322 323 324 324 323 322 321
311 310 310 311 311 311 311 312 312 313 314 315 316 317 318 319 319 320 321 322 323 323 323 323 322 322 321 320 319 320 321 322 322 323 323 323 324 324 323 321 319 319
310 310 310 311 310 310 311 311 311 312 313 314 314 315 316 316 317 318 319 321 321 320 320 319 319 320 319 318 320 323 324 324 324 324 324 323 323 322 321 320 319 320
311 310 311 311 310 310 310 311 311 311 312 312 313 313 313 314 315 315 316 316 316 316 316 316 317 319 319 319 319 320 320 320 319 318 319 319 318 318 319 320 321 321
311 311 311 311 310 310 310 310 311 311 311 311 311 311 311 311 312 312 312 312 312 313 313 313 314 315 315 315 315 315 314 313 314 316 318 318 318 318 317 318 319 319
311 311 311 311 311 311 311 310 310 310 310 310 310 310 310 310 310 310 310 310 311 311 311 311 311 311 310 311 311 311 310 310 313 317 319 319 320 319 316 316 316 314
311 311 311 311 311 310 310 310 310 310 310 310 310 310 310 310 310 310 310 310 310 310 310 310 310 310 310 310 311 310 310 310 311 313 314 314 315 314 313 314 313 311
311 311 311 310 310 310 310 311 311 311 311 310 310 310 310 310 310 310 310 310 310 310 310 310 310 310 310 311 311 310 310 310 309 309 309 310 310 310 312 314 313 310
311 311 311 311 311 311 311 311 311 311 311 311 311 311 311 311 311 311 311 311 311 311 311 311 311 311 311 311 311 310 310 310 309 309 309 309 310 309 309 310 312 313
312 311 312 312 312 312 312 312 312 312 312 312 312 312 312 312 312 312 312 312 312 311 311 311 311 311 311 311 311 311 311 310 309 309 310 310 310 310 310 310 312 315
312 312 312 312 312 312 313 312 312 313 312 312 312 312 312 312 312 312 312 312 311 311 311 311 311 310 311 311 311 311 310 310 309 309 310 309 309 310 311 312 312 313
312 312 311 311 311 311 311 312 312 312 312 312 312 312 312 312 312 312 311 311 311 310 310 310 310 310 310 310 310 311 311 310 310 310 310 310 309 310 312 314 314 313
Wind_Speed
53 52 52 52 51 50 49 48 48 47 47 47 47 45 44 44 43 43 43 42 42 41 40 41 43 44 45 45 45 45 45 46 46 46 47 47 48 48 48 47 47 46
53 52 52 52 52 51 50 49 47 47 47 46 45 44 44 44 44 44 43 42 42 41 39 39 40 41 42 43 44 43 43 43 43 43 43 44 45 46 46 46 46 46
54 53 53 52 52 51 50 48 48 48 48 46 45 44 43 43 43 43 43 42 42 41 40 39 38 38 39 40 41 42 42 42 43 42 41 42 42 44 45 45 45 45
54 54 53 52 51 50 48 48 49 49 48 46 44 43 43 43 43 42 42 42 42 41 40 39 38 37 37 37 38 40 40 41 42 41 42 42 42 42 43 43 44 45
52 53 52 51 51 49 48 49 49 49 48 46 43 43 43 42 42 42 41 41 41 41 41 40 39 37 36 35 36 37 38 39 41 41 42 43 42 42 42 42 43 44
50 51 51 51 50 49 48 49 48 48 48 46 44 44 44 43 42 42 41 41 41 41 40 40 40 38 36 35 35 35 36 37 39 40 41 42 41 41 41 41 42 43
47 48 48 49 49 48 48 48 48 48 47 46 46 45 45 45 43 42 42 41 41 40 40 40 40 39 37 35 34 34 35 36 37 38 39 39 39 39 39 40 40 41
44 45 46 48 48 48 48 48 48 48 47 47 47 45 45 45 44 43 42 41 40 40 39 39 39 38 37 35 34 34 34 35 35 36 37 37 38 39 38 38 39 41
42 44 45 47 48 48 48 48 47 46 46 48 47 45 45 45 44 43 42 41 40 39 38 37 37 36 35 35 35 34 34 34 34 34 35 35 36 37 37 36 36 37
41 43 44 46 47 47 47 46 45 44 46 47 47 46 46 45 44 42 40 39 38 37 36 36 35 34 34 34 34 34 33 33 33 33 34 34 35 35 35 34 35 35
39 41 43 44 44 45 44 43 42 43 45 46 47 47 46 44 42 41 39 38 37 36 35 34 34 33 33 33 32 32 32 32 33 33 33 34 34 33 32 33 36 38
38 39 40 41 42 42 42 41 41 42 44 45 46 46 45 42 41 39 37 36 35 34 33 33 32 32 31 31 31 31 31 32 32 32 32 32 33 33 31 31 34 35
36 37 38 38 39 39 40 40 40 41 43 44 44 43 42 40 39 37 35 35 33 32 32 31 30 30 30 30 30 30 31 31 31 30 30 30 30 29 28 27 29 27
34 35 36 36 35 36 38 39 39 41 42 42 41 41 40 38 36 34 33 32 31 31 30 29 29 30 30 30 30 31 30 30 30 29 29 30 31 32 31 30 30 27
33 34 34 33 33 34 36 37 38 39 39 39 39 38 36 35 33 32 31 30 30 29 28 29 29 30 30 31 31 30 28 28 29 29 30 32 33 33 32 31 31 32
33 33 31 31 31 32 33 34 35 36 36 36 36 34 33 32 31 31 30 29 28 28 28 29 30 31 32 31 29 27 27 28 30 31 32 32 31 30 30 29 28 31
31 30 29 30 30 30 31 31 32 32 33 32 32 31 31 31 30 30 29 28 28 28 29 30 30 30 29 28 26 27 30 31 33 34 33 32 32 33 33 30 26 27
29 28 29 30 30 29 29 29 29 30 30 30 30 29 29 29 28 28 27 27 27 28 28 28 28 28 29 29 29 31 33 34 34 34 32 31 31 33 33 31 28 27
27 28 29 29 29 28 28 27 28 28 27 27 26 26 26 26 26 25 25 25 26 26 26 26 27 28 29 30 31 31 32 32 31 30 29 29 28 28 29 30 30 30
27 28 28 27 26 25 25 25 25 24 24 24 23 23 23 23 23 23 23 23 24 24 24 24 25 25 26 26 26 27 27 28 28 29 31 32 31 31 30 29 30 30
26 26 25 24 23 23 22 22 22 22 22 22 22 21 21 21 21 21 21 21 21 21 22 22 22 22 22 22 22 22 23 24 26 28 30 30 31 30 28 26 26 26
24 23 23 22 22 22 22 22 21 21 21 21 21 21 20 20 20 20 20 20 19 19 19 19 19 18 18 19 20 21 22 22 23 25 26 26 26 26 25 24 23 20
23 22 22 22 22 21 21 21 20 20 20 20 20 20 20 19 19 18 18 18 18 18 17 16 16 17 17 18 19 20 21 21 20 21 22 22 21 21 22 22 20 18
22 22 21 21 21 21 20 20 19 19 19 19 19 19 18 18 18 18 18 17 17 17 16 16 16 16 17 17 18 18 19 19 18 18 19 19 17 17 17 18 19 21
21 21 21 21 20 20 20 19 19 19 19 19 19 19 19 19 19 19 19 18 17 16 16 16 16 16 16 16 17 16 16 16 16 16 16 17 17 17 17 18 19 21
21 21 21 20 20 19 19 19 19 19 20 20 20 20 20 21 21 21 20 19 18 17 16 15 15 16 16 16 15 15 15 15 15 15 15 15 16 17 18 19 19 20
Wind_Direction
251 251 251 251 251 251 251 251 252 253 255 256 257 258 260 261 262 261 259 260 259 259 260 261 261 261 260 260 259 258 258 259 259 259 257 257 258 259 258 258 258 258
251 251 251 251 251 251 251 252 254 255 256 257 258 259 259 260 261 261 261 261 260 260 260 260 260 261 260 260 260 259 259 261 262 260 257 256 258 258 259 259 259 260
251 251 251 251 252 253 253 254 254 255 256 257 258 258 259 259 260 261 262 262 262 262 261 260 260 260 260 260 260 260 261 262 263 262 258 257 258 258 259 260 260 261
251 251 251 252 253 254 255 255 254 255 256 256 257 257 258 259 260 261 262 262 262 262 262 261 261 260 260 260 260 261 262 263 264 262 260 261 261 260 260 260 261 262
252 252 252 253 253 254 254 254 254 254 254 255 255 257 258 259 260 261 262 263 263 263 263 263 263 262 261 260 260 261 262 263 264 262 261 263 264 263 262 261 261 262
252 252 253 253 254 254 254 254 254 254 254 254 255 257 258 260 261 262 263 263 264 265 265 265 265 265 264 262 262 262 263 263 263 263 262 264 265 265 265 264 263 264
253 254 253 254 254 253 253 253 254 253 254 255 256 258 259 260 262 263 264 264 265 266 266 266 266 267 267 266 265 266 266 265 265 264 263 265 266 266 265 265 266 267
254 254 254 254 253 252 252 252 253 253 254 255 257 258 260 261 262 263 263 265 266 267 267 267 266 267 268 268 267 267 267 265 265 265 265 266 266 266 266 265 264 262
254 253 253 253 252 252 252 253 253 253 254 255 256 258 260 261 262 262 263 264 266 266 267 266 266 266 266 266 266 266 265 265 265 265 266 266 267 267 268 268 265 263
253 253 253 253 252 253 253 253 254 254 254 255 256 258 260 261 262 263 263 264 264 264 265 265 264 264 264 264 264 264 264 265 265 266 266 267 268 269 270 271 271 270
252 252 253 253 253 253 253 253 253 253 254 255 256 258 260 262 263 263 263 263 263 263 263 263 263 263 262 262 262 262 263 264 265 266 267 268 268 268 270 271 269 267
252 252 252 252 252 251 251 251 252 252 253 254 256 259 261 263 264 263 263 263 264 264 262 262 262 261 261 261 262 262 263 265 266 265 266 268 268 266 266 267 265 261
253 252 252 252 252 251 250 250 251 252 253 255 257 259 261 263 263 263 263 263 263 262 261 261 260 260 261 261 261 262 263 264 264 264 264 266 269 265 261 262 261 257
253 251 251 251 252 252 250 250 251 252 255 257 258 259 260 261 261 261 261 260 260 259 259 259 259 259 259 259 259 260 263 264 263 262 261 262 267 266 261 259 257 254
251 248 248 248 250 250 249 249 250 252 254 255 256 256 257 257 257 257 256 255 255 256 256 256 256 256 256 257 258 259 260 260 257 256 257 259 262 262 259 260 260 258
248 246 244 242 243 244 245 247 248 250 251 251 251 252 252 252 251 250 250 250 250 251 252 252 252 254 254 256 257 257 254 252 250 249 250 252 252 252 256 262 264 260
246 243 237 234 236 238 241 243 244 245 246 246 247 248 247 247 247 246 246 246 246 247 248 249 250 252 253 253 250 246 242 243 246 247 247 250 252 252 255 259 258 255
241 234 229 228 232 235 237 240 241 242 243 243 243 244 244 243 243 243 243 243 244 245 246 247 247 247 248 247 244 242 242 244 248 249 248 252 254 252 251 252 253 252
232 226 225 228 232 235 237 238 239 240 240 240 240 239 239 238 238 239 239 240 241 242 243 244 245 245 246 246 246 247 246 244 243 243 245 248 250 251 250 250 252 253
224 223 226 229 231 232 233 233 234 234 234 234 233 232 231 231 232 233 234 235 236 238 240 242 244 244 243 241 240 241 240 236 234 236 240 241 243 247 249 249 250 251
222 223 225 226 225 225 226 227 227 226 226 225 225 225 225 226 227 228 229 230 232 234 236 237 238 238 236 235 237 240 240 238 236 238 240 240 243 246 247 251 254 251
220 221 220 221 221 221 221 220 219 219 219 219 219 219 220 221 222 223 224 226 227 228 229 231 233 235 237 239 242 244 244 244 242 242 243 245 248 248 246 249 255 255
218 218 218 217 218 217 216 216 216 215 215 215 216 217 217 218 218 219 220 221 222 223 225 227 230 234 238 241 242 245 247 248 248 246 246 247 249 249 246 243 246 254
215 214 214 213 213 214 214 215 214 215 215 216 217 218 218 218 217 217 217 218 218 220 223 225 229 234 239 243 246 248 248 248 248 247 248 250 250 249 248 244 243 248
213 212 213 212 213 213 213 214 214 215 216 217 217 217 217 216 216 216 216 216 217 219 222 227 232 238 243 246 247 248 248 247 247 247 248 249 248 246 248 250 249 249
214 214 215 215 215 215 214 214 216 217 218 219 218 217 217 217 217 216 216 216 217 219 224 231 235 238 241 243 244 245 246 245 247 249 250 250 249 246 247 249 250 250